Theta_e
339 334 334 333 333 332 332 331 330 330 328 327 326 326 326 326 326 326 326 326 326 326 326 325 325 324 324 323 323 324 329 335
331 332 334 334 333 333 333 332 331 330 329 329 328 328 328 328 327 326 326 325 326 326 326 326 326 325 324 324 324 324 323 332
334 331 333 333 333 333 334 334 334 333 331 331 331 331 331 330 329 327 327 326 326 326 326 326 326 326 326 327 328 326 328 336
345 338 332 333 336 334 333 334 335 335 334 333 333 332 332 336 335 335 331 331 327 327 327 328 329 330 335 334 336 333 335 336
343 345 343 341 344 342 335 334 334 335 336 336 336 334 334 337 337 337 335 333 328 328 331 333 334 334 334 336 334 333 334 335
341 343 343 339 341 340 337 340 340 339 338 337 337 336 336 336 335 335 334 335 332 333 332 332 332 332 333 333 333 332 333 333
341 343 343 340 341 341 341 341 341 340 341 338 337 336 336 335 334 334 333 328 329 333 332 331 331 331 329 332 333 331 332 331
342 342 342 341 342 342 342 341 341 339 337 336 336 335 334 332 331 332 328 327 324 326 332 330 328 329 329 331 329 329 330 329
343 342 341 342 341 342 341 342 341 339 338 337 335 333 332 331 330 328 327 326 326 319 326 329 328 327 328 325 328 327 327 329
344 343 341 340 341 341 339 338 338 337 337 336 334 332 332 331 329 328 324 317 314 316 327 328 329 329 329 326 329 326 326 327
345 344 344 343 341 339 338 338 338 336 335 333 332 332 331 329 326 324 320 313 318 316 323 327 326 327 328 327 325 326 325 325
345 345 344 343 341 340 337 337 336 335 334 333 328 328 326 324 322 320 317 315 314 316 319 322 325 325 323 323 324 324 324 325
344 343 342 339 341 338 338 336 334 335 332 328 327 326 324 322 321 321 319 314 314 314 313 317 322 322 323 320 320 322 323 323
343 341 339 339 339 338 337 334 334 332 328 326 326 325 325 324 324 320 316 313 313 314 315 315 320 323 323 320 320 319 320 320
338 339 337 337 338 337 336 333 332 329 327 327 325 325 325 324 322 316 314 317 318 320 318 316 316 320 320 319 320 319 318 318
336 336 335 337 337 336 334 333 331 328 326 325 325 324 321 321 320 319 320 320 320 319 318 317 315 315 318 319 318 319 319 316
336 335 337 336 335 334 333 330 328 326 325 325 323 321 320 320 319 317 315 314 313 312 312 312 311 314 315 317 318 318 318 319
335 334 334 334 332 330 330 329 327 326 324 321 322 321 319 317 315 314 314 312 311 311 311 310 309 308 310 311 315 315 316 316
333 333 332 331 330 329 329 329 327 326 324 320 320 319 317 315 314 313 313 312 310 309 309 310 310 310 309 307 308 311 313 313
329 330 330 330 330 328 328 326 324 324 322 321 321 320 319 319 318 316 315 313 311 310 310 310 310 309 308 309 310 309 310 310
Wind_Speed
15 21 21 19 17 15 14 13 13 12 12 12 11 10 9 9 9 9 9 8 8 8 7 7 7 7 8 7 7 7 8 6
11 22 22 20 19 17 15 14 13 13 13 13 12 11 11 11 11 11 11 11 10 10 9 9 8 8 8 9 9 9 7 6
11 20 22 20 19 18 17 16 15 15 15 14 13 12 11 12 13 14 14 14 13 11 10 9 9 9 9 9 11 11 8 11
9 12 16 18 14 17 18 17 17 16 16 15 15 12 10 9 12 13 16 17 15 13 10 9 9 7 8 12 13 9 10 16
14 15 12 13 15 12 12 18 17 15 15 13 11 11 13 12 14 15 19 20 17 14 8 4 5 6 10 9 11 14 16 19
17 14 14 16 14 13 6 8 5 7 7 12 13 11 12 11 12 13 17 23 24 13 4 6 4 3 7 7 13 15 13 16
20 17 15 17 18 13 10 13 14 16 14 16 15 15 14 13 15 15 20 26 24 9 4 4 4 7 12 13 10 10 9 8
21 20 15 16 20 17 19 16 18 23 20 17 18 17 17 13 16 17 21 23 24 13 9 3 10 13 13 11 10 7 8 8
21 24 16 16 18 17 23 25 19 20 18 17 15 17 13 18 17 31 35 26 32 12 12 13 8 11 15 11 6 6 9 7
20 24 16 15 21 22 19 19 20 17 17 18 17 12 14 19 22 18 23 2 5 9 10 10 12 12 9 6 5 7 7 6
21 18 18 18 20 20 18 16 16 15 14 14 12 12 14 15 12 14 10 8 7 5 12 5 6 11 12 9 6 4 5 10
21 20 19 18 17 16 16 14 13 13 10 9 6 7 8 9 8 6 9 6 6 8 11 12 5 14 12 13 8 9 8 11
20 18 16 18 19 17 15 15 12 10 8 7 8 9 7 5 5 5 7 7 6 5 6 6 9 13 12 9 8 9 10 13
14 14 14 17 17 15 15 13 15 10 8 9 6 5 7 9 11 12 12 11 9 7 9 9 12 12 12 10 5 9 12 17
13 13 12 14 15 15 15 17 13 12 11 11 5 7 11 11 10 9 9 8 9 13 13 12 13 15 15 12 6 5 8 15
14 13 12 15 15 14 15 14 13 11 9 6 7 9 7 7 8 11 13 15 15 13 15 16 17 19 13 15 17 18 8 6
15 15 15 16 15 14 16 9 11 9 9 8 9 8 8 8 9 8 8 8 8 9 12 12 12 15 17 12 11 17 19 17
18 21 21 20 16 12 13 11 8 5 8 8 10 10 10 9 8 6 5 6 9 10 11 12 12 14 17 18 17 10 13 16
22 23 22 18 17 14 12 11 13 12 11 7 6 7 8 9 6 5 7 8 10 11 12 11 11 11 12 14 15 17 17 14
18 16 14 14 15 14 14 10 12 10 7 5 9 8 9 8 9 7 8 12 11 11 11 11 9 10 9 11 12 14 12 13
Wind_Direction
205 198 196 196 196 196 195 196 199 206 214 218 222 228 235 238 241 243 240 238 236 236 239 243 247 251 255 253 249 232 225 246
209 195 197 198 198 200 201 203 208 214 219 223 229 236 240 244 248 250 250 247 240 242 243 252 258 263 268 277 275 264 249 255
210 195 199 201 203 204 204 208 214 219 222 227 233 240 248 258 257 254 249 248 246 245 248 254 264 275 282 288 288 283 258 289
215 206 200 199 203 209 212 215 221 224 227 231 236 237 249 267 265 263 257 251 244 243 249 260 272 284 284 282 285 281 256 262
192 196 201 184 180 215 228 221 225 226 233 241 243 239 230 233 257 271 269 263 246 235 236 256 291 270 290 282 288 268 260 268
188 197 195 174 187 219 213 202 233 243 238 224 228 225 234 241 261 273 282 287 254 224 210 256 262 288 298 295 275 275 260 260
186 192 206 186 175 203 187 195 200 202 210 226 222 218 218 221 238 245 264 329 9 279 302 302 285 248 251 254 260 264 260 271
197 195 219 205 174 194 188 194 213 227 232 223 220 224 228 237 265 272 301 289 291 344 331 286 261 251 261 255 265 275 281 275
200 204 218 210 185 206 203 202 216 223 226 226 239 246 256 267 269 283 292 275 271 262 284 233 273 273 263 256 265 308 306 276
202 203 209 201 196 205 209 210 223 230 228 240 245 257 276 282 287 289 293 40 165 199 208 249 232 246 264 248 250 268 275 285
182 198 204 218 214 213 205 215 216 232 241 239 250 274 278 278 276 296 253 202 200 187 206 201 249 247 257 261 263 232 257 270
201 201 218 230 227 208 212 224 231 220 228 223 239 251 265 291 327 287 220 196 218 211 211 200 242 260 267 271 269 271 254 248
197 209 218 226 211 214 209 199 206 198 180 213 226 246 246 243 216 209 224 218 235 250 243 198 233 261 270 299 274 250 249 214
190 204 212 210 212 210 202 205 188 189 201 215 221 230 240 243 255 230 214 207 204 208 231 239 216 253 274 283 256 271 245 254
197 193 194 195 189 191 183 185 198 199 204 198 226 226 255 260 245 219 206 220 249 260 260 262 234 237 249 257 248 251 261 249
175 176 172 176 182 190 194 199 195 214 205 229 229 241 232 228 229 231 244 261 268 273 267 261 249 242 244 257 257 262 261 242
162 164 167 164 171 185 184 180 209 195 214 228 221 216 229 241 242 254 258 279 296 293 281 278 251 243 236 235 253 265 268 265
158 156 157 164 155 174 164 203 173 191 208 223 216 219 232 233 227 246 278 289 293 292 285 282 277 257 254 241 240 261 273 265
155 157 158 158 160 174 175 167 178 197 216 211 229 243 254 250 241 267 288 292 295 294 286 276 273 268 266 265 254 248 249 268
149 148 154 158 171 174 181 195 185 202 241 201 202 242 271 255 264 271 237 266 289 301 279 281 274 271 265 266 262 248 250 255